Theta_e
282 281 281 280 280 279 279 280 280 280 280 280 280 280 281 281 281 281 281 281 281 282
280 279 279 278 278 278 279 278 278 278 278 278 279 279 279 279 279 280 280 280 281 281
279 278 277 277 276 277 277 277 276 276 276 276 277 277 277 277 278 278 279 279 279 279
277 276 276 275 276 276 275 275 275 275 274 274 274 275 275 275 275 275 275 276 277 277
276 275 274 275 275 274 274 274 273 273 272 272 272 273 272 272 272 272 272 272 273 274
274 274 273 273 273 273 272 272 272 271 271 270 270 270 270 270 270 270 270 270 270 271
274 273 272 272 272 271 271 270 270 270 269 269 269 269 269 269 269 270 271 271 271 272
272 271 271 270 270 270 269 269 269 268 268 269 269 269 269 270 270 270 271 272 272 273
270 270 269 269 268 267 267 267 267 267 268 268 268 270 272 272 272 271 271 271 272 272
269 268 267 266 266 266 266 266 266 267 267 267 267 270 272 273 272 272 272 272 272 273
267 266 266 265 265 265 266 266 266 266 266 267 267 270 271 272 272 272 272 272 272 272
266 264 264 262 264 264 265 265 264 266 265 265 265 269 271 272 271 271 272 273 273 273
265 262 261 263 262 264 263 264 265 265 265 265 265 269 271 272 272 271 272 273 274 275
263 261 261 261 262 262 262 263 263 264 266 267 269 269 272 274 273 272 272 272 272 273
Wind_Speed
11 6 7 7 5 6 8 9 9 9 10 12 13 13 13 12 12 14 14 19 16 13
10 9 7 7 7 7 9 7 10 11 11 12 13 14 14 12 15 15 16 17 18 16
10 8 6 6 9 8 9 9 10 10 11 12 13 14 14 13 15 16 14 13 19 17
9 8 6 6 6 7 8 9 10 10 10 12 13 14 14 15 16 18 19 19 20 22
9 8 7 6 6 6 8 8 9 10 11 12 13 13 14 16 16 18 20 20 21 22
10 8 6 6 6 6 7 8 8 9 11 12 13 14 14 15 17 18 19 20 21 22
10 8 6 5 6 6 6 8 9 9 11 12 13 14 14 15 17 19 19 21 21 22
8 6 5 5 5 5 5 6 9 10 11 12 12 10 14 17 19 21 22 21 21 21
9 7 5 4 4 5 6 7 8 10 10 12 10 19 23 23 18 20 21 20 20 21
9 7 5 4 4 5 6 7 8 9 10 13 14 21 25 27 18 19 20 21 20 18
10 8 5 5 4 5 5 6 8 10 11 12 12 22 25 28 20 18 21 20 20 21
9 8 6 3 4 4 5 6 8 9 12 13 15 23 26 25 18 18 20 19 20 20
7 6 5 4 2 3 5 7 7 11 11 15 15 22 25 24 14 18 16 20 20 25
7 6 5 4 0 3 5 6 7 10 12 14 14 16 24 27 16 15 17 15 16 15
Wind_Direction
202 211 224 241 264 267 266 272 291 293 291 291 295 293 288 283 277 274 273 271 267 267
192 202 214 228 241 255 264 281 292 292 295 296 291 287 285 279 280 279 276 272 271 267
187 198 210 228 242 259 277 283 286 291 296 297 293 289 286 284 280 278 275 273 273 268
185 190 207 231 257 268 279 283 289 299 299 295 293 291 287 283 282 278 277 274 272 270
180 188 208 226 250 268 280 289 298 306 299 293 291 293 291 290 286 284 283 282 279 276
187 190 204 235 260 270 282 294 300 297 295 298 299 297 293 291 289 288 285 283 280 278
184 186 206 225 248 265 289 301 299 295 292 292 295 297 296 294 294 289 284 281 276 274
173 180 200 235 253 279 294 289 286 293 297 298 300 295 301 298 294 290 289 284 279 274
171 177 202 224 261 280 274 283 295 296 304 306 303 304 302 300 296 296 294 290 285 282
171 179 195 216 249 264 284 299 298 302 308 306 304 304 306 308 299 297 295 292 290 285
172 177 181 210 246 269 291 300 309 311 304 299 304 308 309 306 304 297 291 290 288 284
170 166 175 196 240 279 296 311 301 298 304 304 301 304 307 310 303 292 297 290 287 280
160 160 166 175 244 318 305 297 303 310 307 298 292 292 310 309 299 297 297 289 280 277
158 166 165 165 344 303 305 311 312 311 308 296 299 303 309 313 307 302 301 309 303 294